Crestview, FL

10:25 AM CDT on August 19, 2017 (GMT -0500)
Sikes

Weather History for KCEW - January, 2012

Change the Weather History Date:

Friday, January 6, 2012

  Actual Average Record
Temperature  
Mean Temperature 54 °F -  
Max Temperature 70 °F 65 °F 77 °F (2005)
Min Temperature 39 °F 40 °F 18 °F (1999)
Degree Days  
Heating Degree Days 10    
Growing Degree Days 4 (Base 50)    
Moisture  
Dew Point 48 °F    
Average Humidity 88    
Maximum Humidity 100    
Minimum Humidity 49    
Precipitation  
Precipitation 0.01 in - - ()
Sea Level Pressure  
Sea Level Pressure 30.17 in    
Wind  
Wind Speed 1 mph (SW)    
Max Wind Speed 7 mph    
Max Gust Speed -    
Visibility 3 miles    
Events Fog    
Averages and records for this station are not official NWS values.
T = Trace of Precipitation, MM = Missing Value Source: NWS Daily Summary

Daily Weather History Graph

Daily Weather History Graph

Search for Another Location

Airport or City:

Trip Planner

Search our weather history database for the weather conditions in past years. The results will help you decide how hot, cold, wet, or windy it might be!

Date:

Astronomy

Jan. 06, 2012 Rise Set
Actual Time 6:44 AM CST 4:59 PM CST
Civil Twilight 6:18 AM CST 5:25 PM CST
Nautical Twilight 5:48 AM CST 5:55 PM CST
Astronomical Twilight 5:18 AM CST 6:24 PM CST
Moon 2:51 PM CST (1/6) 4:22 AM CST (1/6)
Length of Visible Light 11h 07m
Length of Day
10h 14m
Waxing Gibbous, 93% of the Moon is Illuminated
Jan 6
Waxing Gibbous
Jan 9
Full
Jan 16
Last Quarter
Jan 23
New
Jan 30
First Quarter

Hourly Weather History & Observations

Time (CST) Temp. Dew Point Humidity Pressure Visibility Wind Dir Wind Speed Gust Speed Precip Events Conditions
12:53 AM 41.0 °F 39.9 °F 96% 30.17 in 0.2 mi Calm Calm - N/A Fog Fog
1:53 AM 44.6 °F 42.8 °F 93% 30.17 in 0.2 mi Calm Calm - N/A Fog Fog
2:50 AM 44.6 °F 42.8 °F 93% 30.17 in 0.2 mi Calm Calm - N/A Fog Fog
2:53 AM 45.0 °F 43.0 °F 93% 30.17 in 0.2 mi Calm Calm - N/A Fog Fog
3:53 AM 45.0 °F 44.1 °F 97% 30.17 in 0.2 mi Calm Calm - N/A Fog Fog
4:53 AM 44.1 °F 42.1 °F 93% 30.17 in 0.2 mi Calm Calm - N/A Fog Fog
5:36 AM 42.8 °F 39.2 °F 87% 30.18 in 0.2 mi Calm Calm - N/A Fog Fog
5:51 AM 41.0 °F 39.2 °F 93% 30.18 in 0.2 mi Calm Calm - N/A Fog Fog
5:53 AM 41.0 °F 39.9 °F 96% 30.18 in 0.2 mi Calm Calm - N/A Fog Fog
6:53 AM 39.9 °F 39.0 °F 97% 30.19 in 0.2 mi Calm Calm - N/A Fog Fog
7:24 AM 39.2 °F 39.2 °F 100% 30.20 in 0.5 mi Calm Calm - N/A Fog Fog
7:29 AM 41.0 °F 39.2 °F 93% 30.20 in 1.0 mi Calm Calm - N/A   Mist
7:40 AM 42.8 °F 41.0 °F 93% 30.20 in 2.5 mi Calm Calm - N/A   Mostly Cloudy
7:48 AM 42.8 °F 41.0 °F 93% 30.20 in 3.0 mi Calm Calm - N/A   Mostly Cloudy
7:53 AM 43.0 °F 42.1 °F 97% 30.21 in 3.0 mi Calm Calm - N/A   Mostly Cloudy
8:09 AM 44.6 °F 42.8 °F 93% 30.21 in 1.5 mi Calm Calm - N/A   Overcast
8:20 AM 44.6 °F 44.6 °F 100% 30.22 in 0.5 mi Calm Calm - N/A Fog Fog
8:36 AM 46.4 °F 44.6 °F 93% 30.22 in 0.2 mi Calm Calm - N/A Fog Fog
8:51 AM 48.2 °F 46.4 °F 93% 30.23 in 1.0 mi Calm Calm - N/A   Mist
8:53 AM 48.0 °F 46.0 °F 93% 30.23 in 1.2 mi Calm Calm - N/A   Overcast
9:02 AM 48.2 °F 48.2 °F 100% 30.23 in 3.0 mi Calm Calm - N/A   Mostly Cloudy
9:15 AM 51.8 °F 48.2 °F 88% 30.24 in 8.0 mi Calm Calm - N/A   Scattered Clouds
9:53 AM 57.2 °F 51.8 °F 82% 30.23 in 10.0 mi Calm Calm - N/A   Clear
10:53 AM 68.0 °F 51.1 °F 55% 30.21 in 10.0 mi WNW 4.6 mph - N/A   Clear
11:53 AM 68.0 °F 52.0 °F 56% 30.17 in 10.0 mi WSW 4.6 mph - N/A   Partly Cloudy
12:53 PM 70.0 °F 50.0 °F 49% 30.14 in 10.0 mi West 5.8 mph - N/A   Scattered Clouds
1:53 PM 69.1 °F 51.1 °F 53% 30.14 in 10.0 mi West 6.9 mph - N/A   Scattered Clouds
2:53 PM 69.1 °F 48.9 °F 49% 30.12 in 10.0 mi WNW 5.8 mph - N/A   Partly Cloudy
3:53 PM 68.0 °F 51.1 °F 55% 30.12 in 10.0 mi Calm Calm - N/A   Clear
4:53 PM 62.6 °F 53.6 °F 72% 30.12 in 10.0 mi South 4.6 mph - N/A   Clear
5:53 PM 60.1 °F 55.9 °F 86% 30.13 in 10.0 mi South 4.6 mph - N/A   Partly Cloudy
6:45 PM 57.2 °F 55.4 °F 94% 30.14 in 8.0 mi Calm Calm - N/A   Scattered Clouds
6:53 PM 57.9 °F 55.9 °F 93% 30.14 in 7.0 mi South 3.5 mph - N/A   Mostly Cloudy
7:00 PM 57.2 °F 55.4 °F 94% 30.14 in 6.0 mi South 4.6 mph - N/A   Mostly Cloudy
7:43 PM 57.2 °F 55.4 °F 94% 30.14 in 1.8 mi Calm Calm - N/A   Overcast
7:53 PM 57.0 °F 55.9 °F 96% 30.14 in 1.5 mi Calm Calm - N/A   Overcast
8:10 PM 57.2 °F 55.4 °F 94% 30.14 in 2.0 mi Calm Calm - N/A   Overcast
8:21 PM 57.2 °F 57.2 °F 100% 30.14 in 0.8 mi South 3.5 mph - N/A   Overcast
8:29 PM 57.2 °F 57.2 °F 100% 30.14 in 0.2 mi Calm Calm - N/A Fog Fog
8:53 PM 57.9 °F 57.0 °F 97% 30.14 in 0.2 mi Calm Calm - N/A Fog Fog
9:53 PM 55.9 °F 55.9 °F 100% 30.13 in 0.2 mi Calm Calm - 0.01 in Fog Fog
10:53 PM 55.0 °F 54.0 °F 96% 30.13 in 0.2 mi Calm Calm - N/A Fog Fog
11:53 PM 52.0 °F 51.1 °F 97% 30.12 in 0.2 mi Calm Calm - N/A Fog Fog